Location: �perlecques
(50.8057°N, 2.1521°E)
Time: 12:25:46
(UTC+00:00)

Vanguard 1 Rocket - Pass Details

Date: 08 August 2021
Orbit: 650 x 4226 km, 34.3° (Epoch: 20 September)

Event Time Altitude Azimuth Distance (km) Brightness Sun altitude
Rises 08:00:30 0° 229° (SW) 8,464 12.0 31.7°
Reaches altitude 10° 08:07:11 10° 223° (SW) 7,376 11.9 32.7°
Maximum altitude 08:28:12 39° 165° (SSE) 4,342 11.7 35.9°
Drops below altitude 10° 08:41:49 10° 104° (ESE) 4,899 12.4 37.9°
Sets 08:45:09 0° 96° (E) 5,493 12.2 38.4°
